Flag Weather past 2 weeks in Panipat, Haryana, India

Now
59 °F

Passing clouds.


Feels Like: 60 °F
Forecast: 54 / 81 °F
Wind: 3 mph from East

Location: New Delhi Palam Airport

Current Time: Nov 28, 2014 at 4:43:20 AM

Latest Report: Nov 28, 2014 at 4:00 AM


Visibility: 1 mi

Pressure: 29.89 "Hg

Humidity: 59%

Dew point: 45 °F

Location of PanipatLocation

Historic Weather in Panipat — Graph

°F

Panipat temperature yesterday

Maximum temperature yesterday: 82 °F (at 1:00 PM)
Minimum temperature yesterday: 52 °F (at 6:00 AM)
Average temperature yesterday: 66 °F

Past Weeks' High & Low Weather Summary

 TemperatureHumidityPressure
High82 °F (Nov 19, 1:30 PM)88% (Nov 19, 7:30 AM)30.12 "Hg (Nov 19, 7:30 AM)
Low48 °F (Nov 22, 7:00 AM)17% (Nov 23, 3:30 PM)29.83 "Hg (Nov 26, 2:30 PM)
Average65 °F50%29.98 "Hg
* Reported Nov 13 2:30 AM — Nov 28 3:00 AM, Panipat, Weather by CustomWeather, © 2014

Note: Actual official high and low records may vary slightly from our data, if they occured in-between our weather recording intervals... More about our weather records

Advertising

Panipat weather history for previous 24 hours

 ConditionsComfort  
Time TempWeatherWind HumidityBarometerVisibility
3:00 AM
Nov 28
63 °FPassing clouds.6 mph56%29.89 "Hg1 mi
2:30 AM63 °FPassing clouds.6 mph56%29.89 "Hg1 mi
2:00 AM64 °FPassing clouds.3 mph52%29.89 "Hg1 mi
1:30 AM64 °FPassing clouds.5 mph56%29.89 "Hg1 mi
1:00 AM64 °FPassing clouds.5 mph56%29.89 "Hg1 mi
12:30 AM64 °FClear.5 mph52%29.89 "Hg1 mi
12:00 AM64 °FClear.5 mph52%29.89 "Hg1 mi
11:30 PM
Nov 27
64 °FClear.5 mph52%29.89 "Hg1 mi
11:00 PM64 °FClear.5 mph52%29.89 "Hg1 mi
10:30 PM64 °FClear.6 mph49%29.92 "Hg1 mi
10:00 PM64 °FClear.5 mph49%29.92 "Hg1 mi
9:30 PM64 °FClear.5 mph49%29.92 "Hg1 mi
9:00 PM66 °FClear.6 mph46%29.92 "Hg1 mi
8:30 PM66 °FClear.5 mph46%29.89 "Hg1 mi
8:00 PM66 °FClear.6 mph46%29.89 "Hg1 mi
7:00 PM68 °FClear.5 mph43%29.89 "Hg1 mi
6:30 PM70 °FClear.5 mph40%29.86 "Hg1 mi
6:00 PM72 °FClear.5 mph38%29.86 "Hg1 mi
5:30 PM75 °FClear.5 mph31%29.86 "Hg1 mi
5:00 PM79 °FHaze.5 mph28%29.86 "Hg1 mi
4:30 PM81 °FHaze.6 mph24%29.86 "Hg2 mi
4:00 PM82 °FHaze.6 mph20%29.86 "Hg2 mi
3:30 PM82 °FHaze.N/A20%29.86 "Hg2 mi
3:00 PM82 °FHaze.5 mph20%29.86 "Hg2 mi
2:30 PM82 °FHaze.2 mph23%29.86 "Hg2 mi
1:00 PM82 °FHaze.5 mph23%29.89 "Hg1 mi
12:30 PM81 °FHaze.6 mph24%29.92 "Hg1 mi
12:00 PM81 °FHaze.6 mph24%29.92 "Hg1 mi
11:30 AM79 °FHaze.6 mph28%29.95 "Hg1 mi
10:30 AM72 °FClear.5 mph36%29.95 "Hg1 mi
10:00 AM68 °FClear.6 mph43%29.95 "Hg1 mi
8:30 AM55 °FFog.No wind72%29.92 "Hg1 mi
7:30 AM52 °FFog.No wind82%29.89 "Hg1 mi
7:00 AM52 °FFog.No wind82%29.89 "Hg1 mi
6:30 AM52 °FFog.No wind82%29.86 "Hg1 mi
6:00 AM52 °FFog.No wind82%29.86 "Hg1 mi
5:30 AM54 °FFog.No wind82%29.86 "Hg1 mi
5:00 AM55 °FFog.No wind77%29.83 "Hg1 mi
4:30 AM55 °FFog.No wind77%29.83 "Hg1 mi
4:00 AM55 °FFog.No wind77%29.83 "Hg1 mi
Weather by CustomWeather, © 2014

See weather overviewHow to use our weather pages